This is the latest recevied weather packets stored in our database for station/object K6HFP. If no packets are shown the sender has not sent any weather packets the latest 10 day(s).
| Time | Temp. | Humidity | Pressure | Rain* | Wind** | Luminosity | Snow |
|---|---|---|---|---|---|---|---|
| 1788136119 | 88° F | 20% | 757.8 mmHg | 0 in | - | 334 W/m² | - |
| 1788135817 | 88° F | 20% | 757.6 mmHg | 0 in | - | 355 W/m² | - |
| 1788135513 | 89° F | 19% | 757.7 mmHg | 0 in | - | 372 W/m² | - |
| 1788135208 | 89° F | 19% | 757.6 mmHg | 0 in | - | 395 W/m² | - |
| 1788134906 | 89° F | 18% | 757.7 mmHg | 0 in | - | 415 W/m² | - |
| 1788134606 | 89° F | 18% | 757.7 mmHg | 0 in | - | 434 W/m² | - |
| 1788134304 | 89° F | 19% | 757.6 mmHg | 0 in | - | 454 W/m² | - |
| 1788133999 | 89° F | 19% | 757.7 mmHg | 0 in | - | 472 W/m² | - |
| 1788133695 | 89° F | 18% | 757.8 mmHg | 0 in | - | 491 W/m² | - |
| 1788133390 | 89° F | 18% | 757.9 mmHg | 0 in | - | 509 W/m² | - |
| 1788133086 | 90° F | 18% | 757.9 mmHg | 0 in | - | 527 W/m² | - |
| 1788132781 | 90° F | 19% | 757.9 mmHg | 0 in | - | 541 W/m² | - |
| 1788132477 | 90° F | 18% | 757.8 mmHg | 0 in | - | 559 W/m² | - |
| 1788132173 | 90° F | 18% | 757.9 mmHg | 0 in | - | 577 W/m² | - |
| 1788131869 | 90° F | 18% | 757.9 mmHg | 0 in | - | 590 W/m² | - |
| 1788131568 | 90° F | 21% | 757.8 mmHg | 0 in | - | 606 W/m² | - |
| 1788131263 | 89° F | 22% | 757.9 mmHg | 0 in | - | 621 W/m² | - |
| 1788130959 | 89° F | 20% | 757.9 mmHg | 0 in | - | 637 W/m² | - |
| 1788130658 | 90° F | 22% | 757.8 mmHg | 0 in | - | 653 W/m² | - |
| 1788130353 | 89° F | 22% | 757.9 mmHg | 0 in | - | 666 W/m² | - |
| 1788130052 | 89° F | 21% | 758.2 mmHg | 0 in | - | 683 W/m² | - |
| 1788129748 | 89° F | 20% | 758.1 mmHg | 0 in | - | 698 W/m² | - |
| 1788129444 | 89° F | 22% | 758.2 mmHg | 0 in | - | 712 W/m² | - |
| 1788129140 | 88° F | 24% | 758.2 mmHg | 0 in | - | 722 W/m² | - |
| 1788128834 | 88° F | 23% | 758.4 mmHg | 0 in | - | 737 W/m² | - |
* Rain latest hour (hover to see other rain measurements)
** Current wind speed in m/s (hover to see current wind gust speed)